• In Uzbekistan
  • List of Countries
  • For 7 days
  • Water Temperature
  • Satellite Maps
  • Weather Map
  • Weather Widgets
  • user-avatar
    Login

    Hourly Weather Yeghegnadzor

    Today, 17 January, Tuesday

    Time Temperature Precipitation Wind Pressure Humidity
    00:00 -8°C° 0 mm 1 mps 652 mmHg 85%
    01:00 -7°C° 0 mm 1 mps 652 mmHg 85%
    02:00 -7°C° 0 mm 1 mps 652 mmHg 84%
    03:00 -7°C° 0 mm 1 mps 652 mmHg 83%
    04:00 -7°C° 0 mm 1 mps 652 mmHg 83%
    05:00 -6°C° 0 mm 1 mps 652 mmHg 82%
    06:00 -6°C° 0 mm 1 mps 652 mmHg 82%
    07:00 -3°C° 0 mm 1 mps 653 mmHg 82%
    08:00 -2°C° 0 mm 1 mps 654 mmHg 81%
    09:00 0°C° 0 mm 1 mps 654 mmHg 81%
    10:00 +1°C° 0 mm 1 mps 655 mmHg 81%
    11:00 +3°C° 0 mm 1 mps 655 mmHg 81%
    12:00 +4°C° 0 mm 1 mps 655 mmHg 81%
    13:00 +4°C° 0 mm 1 mps 654 mmHg 82%
    14:00 +4°C° 0 mm 1 mps 654 mmHg 84%
    15:00 +3°C° 0 mm 0 mps 654 mmHg 86%
    16:00 +1°C° 0 mm 1 mps 653 mmHg 88%
    17:00 -2°C° 0 mm 1 mps 652 mmHg 90%
    18:00 -6°C° 0 mm 1 mps 651 mmHg 91%
    19:00 -6°C° 0 mm 1 mps 652 mmHg 90%
    20:00 -6°C° 0 mm 1 mps 652 mmHg 88%
    21:00 -6°C° 0 mm 1 mps 652 mmHg 86%
    22:00 -6°C° 0 mm 1 mps 652 mmHg 86%
    23:00 -6°C° 0 mm 1 mps 651 mmHg 85%

    Tomorrow, 18 January, Wednesday

    Time Temperature Precipitation Wind Pressure Humidity
    00:00 -7°C° 0 mm 1 mps 651 mmHg 84%
    01:00 -6°C° 0 mm 1 mps 651 mmHg 84%
    02:00 -6°C° 0 mm 1 mps 651 mmHg 84%
    03:00 -6°C° 0 mm 1 mps 651 mmHg 83%
    04:00 -6°C° 0 mm 1 mps 651 mmHg 84%
    05:00 -6°C° 0 mm 1 mps 651 mmHg 84%
    06:00 -4°C° 0 mm 1 mps 651 mmHg 84%
    07:00 -3°C° 0 mm 1 mps 652 mmHg 83%
    08:00 -1°C° 0 mm 1 mps 653 mmHg 82%
    09:00 +1°C° 0 mm 1 mps 654 mmHg 81%
    10:00 +2°C° 0 mm 1 mps 654 mmHg 81%
    11:00 +3°C° 0 mm 1 mps 654 mmHg 80%
    12:00 +4°C° 0 mm 1 mps 654 mmHg 79%
    13:00 +4°C° 0 mm 1 mps 654 mmHg 81%
    14:00 +3°C° 0 mm 0 mps 653 mmHg 83%
    15:00 +3°C° 0 mm 0 mps 653 mmHg 85%
    16:00 +1°C° 0 mm 0 mps 652 mmHg 87%
    17:00 -2°C° 0 mm 0 mps 652 mmHg 89%
    18:00 -5°C° 0 mm 0 mps 651 mmHg 90%
    19:00 -4°C° 0 mm 1 mps 651 mmHg 89%
    20:00 -4°C° 0 mm 1 mps 651 mmHg 88%
    21:00 -6°C° 0 mm 1 mps 651 mmHg 86%
    22:00 -6°C° 0 mm 1 mps 651 mmHg 85%
    23:00 -6°C° 0 mm 1 mps 651 mmHg 84%

    Day after tomorrow, 19 January, Thursday

    Time Temperature Precipitation Wind Pressure Humidity
    00:00 -7°C° 0 mm 1 mps 651 mmHg 83%
    01:00 -7°C° 0 mm 1 mps 651 mmHg 82%
    02:00 -7°C° 0 mm 1 mps 651 mmHg 82%
    03:00 -7°C° 0 mm 1 mps 651 mmHg 82%
    04:00 -7°C° 0 mm 1 mps 651 mmHg 82%
    05:00 -7°C° 0 mm 1 mps 651 mmHg 82%
    06:00 -7°C° 0 mm 1 mps 651 mmHg 83%
    07:00 -4°C° 0 mm 1 mps 652 mmHg 82%
    08:00 -2°C° 0 mm 1 mps 653 mmHg 81%
    09:00 0°C° 0 mm 1 mps 654 mmHg 80%
    10:00 +1°C° 0 mm 1 mps 654 mmHg 79%
    11:00 +2°C° 0 mm 1 mps 654 mmHg 78%
    12:00 +4°C° 0 mm 1 mps 654 mmHg 77%
    13:00 +4°C° 0 mm 1 mps 654 mmHg 79%
    14:00 +3°C° 0 mm 1 mps 654 mmHg 81%
    15:00 +2°C° 0 mm 0 mps 653 mmHg 83%
    16:00 -1°C° 0 mm 0 mps 652 mmHg 85%
    17:00 -4°C° 0 mm 0 mps 652 mmHg 88%
    18:00 -7°C° 0 mm 0 mps 651 mmHg 91%
    19:00 -7°C° 0 mm 0 mps 651 mmHg 90%
    20:00 -8°C° 0 mm 0 mps 651 mmHg 90%
    21:00 -8°C° 0 mm 0 mps 651 mmHg 89%
    22:00 -8°C° 0 mm 0 mps 651 mmHg 88%
    23:00 -8°C° 0 mm 0 mps 651 mmHg 88%

    20 January, Friday

    Time Temperature Precipitation Wind Pressure Humidity
    00:00 -9°C° 0 mm 0 mps 651 mmHg 87%
    01:00 -9°C° 0 mm 0 mps 651 mmHg 87%
    02:00 -8°C° 0 mm 0 mps 651 mmHg 87%
    03:00 -8°C° 0 mm 0 mps 651 mmHg 87%
    04:00 -8°C° 0 mm 0 mps 652 mmHg 86%
    05:00 -8°C° 0 mm 1 mps 652 mmHg 85%
    06:00 -7°C° 0 mm 1 mps 652 mmHg 85%
    07:00 -6°C° 0 mm 1 mps 653 mmHg 84%
    08:00 -3°C° 0 mm 1 mps 655 mmHg 83%
    09:00 -1°C° 0 mm 1 mps 656 mmHg 82%
    10:00 0°C° 0 mm 1 mps 656 mmHg 80%
    11:00 +1°C° 0 mm 1 mps 656 mmHg 78%
    12:00 +2°C° 0 mm 0 mps 656 mmHg 76%
    13:00 +1°C° 0.1 mm 0 mps 656 mmHg 78%
    14:00 +1°C° 0.1 mm 0 mps 655 mmHg 80%
    15:00 +1°C° 0.1 mm 0 mps 655 mmHg 82%
    16:00 -1°C° 0.1 mm 0 mps 655 mmHg 85%
    17:00 -2°C° 0.1 mm 0 mps 654 mmHg 87%
    18:00 -4°C° 0.1 mm 0 mps 654 mmHg 90%
    19:00 -4°C° 0.1 mm 0 mps 654 mmHg 89%
    20:00 -4°C° 0.1 mm 0 mps 654 mmHg 89%
    21:00 -5°C° 0.1 mm 0 mps 654 mmHg 89%
    22:00 -5°C° 0.1 mm 0 mps 654 mmHg 88%
    23:00 -5°C° 0.1 mm 0 mps 654 mmHg 88%

    21 January, Saturday

    Time Temperature Precipitation Wind Pressure Humidity
    00:00 -6°C° 0.1 mm 0 mps 654 mmHg 88%
    01:00 -6°C° 0 mm 0 mps 654 mmHg 88%
    02:00 -7°C° 0 mm 0 mps 653 mmHg 88%
    03:00 -7°C° 0 mm 0 mps 653 mmHg 88%
    04:00 -8°C° 0 mm 0 mps 653 mmHg 88%
    05:00 -9°C° 0 mm 0 mps 652 mmHg 89%
    06:00 -9°C° 0 mm 0 mps 652 mmHg 89%
    07:00 -7°C° 0 mm 0 mps 653 mmHg 87%
    08:00 -5°C° 0 mm 0 mps 654 mmHg 85%
    09:00 -3°C° 0 mm 0 mps 655 mmHg 83%
    10:00 -2°C° 0 mm 0 mps 655 mmHg 81%
    11:00 0°C° 0 mm 0 mps 655 mmHg 79%
    12:00 +2°C° 0 mm 1 mps 655 mmHg 78%
    13:00 +2°C° 0.1 mm 1 mps 655 mmHg 79%
    14:00 +1°C° 0.1 mm 1 mps 654 mmHg 81%
    15:00 +1°C° 0.1 mm 1 mps 654 mmHg 82%
    16:00 -1°C° 0.1 mm 1 mps 653 mmHg 86%
    17:00 -4°C° 0.1 mm 0 mps 653 mmHg 89%
    18:00 -6°C° 0.1 mm 0 mps 653 mmHg 93%
    19:00 -6°C° 0 mm 0 mps 653 mmHg 92%
    20:00 -7°C° 0 mm 0 mps 653 mmHg 92%
    21:00 -8°C° 0 mm 0 mps 653 mmHg 92%
    22:00 -8°C° 0 mm 0 mps 653 mmHg 92%
    23:00 -8°C° 0 mm 0 mps 653 mmHg 91%

    22 January, Sunday

    Time Temperature Precipitation Wind Pressure Humidity
    00:00 -7°C° 0 mm 0 mps 653 mmHg 91%
    01:00 -7°C° 0 mm 0 mps 654 mmHg 91%
    02:00 -7°C° 0 mm 1 mps 654 mmHg 91%
    03:00 -7°C° 0 mm 1 mps 654 mmHg 90%
    04:00 -7°C° 0 mm 1 mps 655 mmHg 90%
    05:00 -7°C° 0 mm 1 mps 655 mmHg 89%
    06:00 -6°C° 0 mm 1 mps 655 mmHg 89%
    07:00 -4°C° 0 mm 1 mps 656 mmHg 87%
    08:00 -3°C° 0 mm 1 mps 657 mmHg 86%
    09:00 -2°C° 0 mm 1 mps 658 mmHg 84%
    10:00 -1°C° 0 mm 1 mps 658 mmHg 83%
    11:00 0°C° 0 mm 1 mps 658 mmHg 81%
    12:00 +1°C° 0 mm 1 mps 659 mmHg 79%
    13:00 +1°C° 0.1 mm 1 mps 658 mmHg 80%
    14:00 +1°C° 0.1 mm 1 mps 658 mmHg 81%
    15:00 +1°C° 0.1 mm 1 mps 658 mmHg 82%
    16:00 -1°C° 0.1 mm 1 mps 658 mmHg 85%
    17:00 -2°C° 0.1 mm 1 mps 658 mmHg 88%
    18:00 -4°C° 0.1 mm 1 mps 658 mmHg 91%
    19:00 -4°C° 0 mm 1 mps 659 mmHg 90%
    20:00 -4°C° 0 mm 1 mps 659 mmHg 90%
    21:00 -6°C° 0 mm 1 mps 659 mmHg 89%
    22:00 -6°C° 0 mm 1 mps 659 mmHg 89%
    23:00 -7°C° 0 mm 1 mps 659 mmHg 88%
    Show more